Location: Pinawa
(50.1500°N, 95.8830°W)
Time: 05:26:32
(UTC-05:00)

Amateur Radio Satellites - All Passes

Search period start: 01 November 2014 04:56
Search period end: 02 November 2014 03:56
Location: Pinawa, 50.1500°N, 95.8830°W

Satellite Date Start Highest point End Downlink Frequencies (MHz)
Time Altitude Azimuth
AO-27 01 Nov 05:28:27 05:32:21 22° 303° (WNW) 05:36:13 436.795 MHz FM
RS-15 01 Nov 05:45:49 05:56:58 77° 46° (NE) 06:08:33 29.354 - 29.394 USB, Beacon 29.352 USB
Gurwin Techsat 1B 01 Nov 05:47:39 05:51:56 25° 301° (WNW) 05:56:13 435.225 FM
TMSAT-1 01 Nov 05:53:24 05:57:54 29° 299° (WNW) 06:02:22 436.925 FM
Saudisat 1A 01 Nov 05:58:12 06:01:48 25° 117° (ESE) 06:05:26 436.775 MHz
OPAL 01 Nov 06:00:58 06:05:57 55° 257° (WSW) 06:10:55 ?
Sapphire 01 Nov 06:05:53 06:09:38 19° 337° (NNW) 06:13:23 437.095 MHz 1200 baud AX-25 AFSK
Uribyol 2 01 Nov 06:14:08 06:15:05 11° 313° (NW) 06:16:03 436.500 FM
Uosat F 01 Nov 06:19:16 06:24:21 83° 287° (WNW) 06:29:23 435.120 FM
STRAND 1 01 Nov 06:20:04 06:24:42 35° 63° (ENE) 06:29:20 ?
PCSat 01 Nov 06:28:31 06:31:46 16° 343° (NNW) 06:35:01 145.825 MHz
JAS-2 01 Nov 06:29:03 06:36:42 52° 97° (E) 06:44:10 435.800 - 435.900 CW/SSB, 435.910 FM
MaSat-1 01 Nov 06:30:08 06:31:28 13° 42° (NE) 06:32:45 437.345 MHz
AO-7 01 Nov 06:42:00 06:50:18 73° 295° (WNW) 06:58:35 29.400 - 29.500 MHz
Hamsat 01 Nov 07:00:32 07:04:38 48° 99° (E) 07:08:45 145.90 MHz
Saudisat 1A 01 Nov 07:36:47 07:41:06 55° 316° (NW) 07:45:28 436.775 MHz
Sapphire 01 Nov 07:52:44 07:55:18 13° 3° (N) 07:57:53 437.095 MHz 1200 baud AX-25 AFSK
RS-15 01 Nov 07:58:40 08:08:35 40° 251° (WSW) 08:18:55 29.354 - 29.394 USB, Beacon 29.352 USB
STRAND 1 01 Nov 07:59:01 08:03:50 40° 263° (W) 08:08:42 ?
Uosat F 01 Nov 07:59:28 08:02:24 16° 307° (NW) 08:05:19 435.120 FM
MaSat-1 01 Nov 08:04:40 08:07:02 35° 245° (WSW) 08:09:16 437.345 MHz
JAS-2 01 Nov 08:14:15 08:21:37 46° 298° (WNW) 08:28:53 435.800 - 435.900 CW/SSB, 435.910 FM
PCSat 01 Nov 08:14:41 08:17:31 14° 10° (N) 08:20:20 145.825 MHz
AO-7 01 Nov 08:35:42 08:41:50 24° 318° (NW) 08:47:59 29.400 - 29.500 MHz
Hamsat 01 Nov 08:37:07 08:40:19 21° 297° (WNW) 08:43:32 145.90 MHz
SO-67 01 Nov 08:51:15 08:54:42 69° 285° (WNW) 08:58:08 435.3500 MHz FM
Saudisat 1A 01 Nov 09:18:35 09:21:36 18° 339° (NNW) 09:24:38 436.775 MHz
Sapphire 01 Nov 09:36:33 09:40:49 23° 29° (NNE) 09:45:04 437.095 MHz 1200 baud AX-25 AFSK
Oscar 11 01 Nov 09:48:07 09:48:19 10° 85° (E) 09:48:30 145.825 FM, Beacon 2401.500 USB
PCSat 01 Nov 09:58:05 10:02:47 29° 35° (NE) 10:07:28 145.825 MHz
JAS-2 01 Nov 10:01:01 10:04:50 15° 319° (NW) 10:08:40 435.800 - 435.900 CW/SSB, 435.910 FM
KITSAT 1 01 Nov 10:02:27 10:07:34 19° 101° (E) 10:12:40 435.175 FM
HO-68 01 Nov 10:04:43 10:11:39 47° 99° (E) 10:18:30 435.675 MHz FM
ISS 01 Nov 10:27:13 10:29:29 17° 140° (SE) 10:31:46 145.800 FM
UKube-1 01 Nov 10:46:52 10:50:58 37° 98° (E) 10:55:01 145.840 MHz, 145.915 MHz
ZACube-1 01 Nov 10:58:06 11:01:28 23° 92° (E) 11:04:46 437.345 MHz
Saudisat 1A 01 Nov 11:00:53 11:02:53 13° 3° (N) 11:04:52 436.775 MHz
Sapphire 01 Nov 11:19:41 11:25:09 75° 52° (NE) 11:30:35 437.095 MHz 1200 baud AX-25 AFSK
Oscar 11 01 Nov 11:20:53 11:25:13 82° 104° (ESE) 11:29:32 145.825 FM, Beacon 2401.500 USB
SO-50 01 Nov 11:39:45 11:43:59 40° 121° (ESE) 11:48:21 436.795 FM
FUNcube-1 01 Nov 11:40:13 11:44:24 58° 101° (E) 11:48:29 145.950 - 145.970 MHz USB
PCSat 01 Nov 11:41:19 11:46:45 76° 237° (WSW) 11:52:09 145.825 MHz
HO-68 01 Nov 11:52:36 11:59:22 45° 300° (WNW) 12:06:05 435.675 MHz FM
KITSAT 1 01 Nov 11:53:35 12:01:37 73° 122° (ESE) 12:09:41 435.175 FM
ISS 01 Nov 12:02:26 12:05:44 69° 159° (SSE) 12:09:04 145.800 FM
Oscar 16 01 Nov 12:04:08 12:06:33 14° 51° (NE) 12:08:58 437.025 USB, Beacon 2401.1428
JAS-1B 01 Nov 12:08:01 12:11:26 17° 48° (NE) 12:14:57 435.800 - 435.900 CW/SSB
UOSAT-12 01 Nov 12:20:38 12:22:44 13° 109° (ESE) 12:24:50 437.025 FM, 437.400 FM
UKube-1 01 Nov 12:23:17 12:27:02 28° 296° (WNW) 12:30:46 145.840 MHz, 145.915 MHz
AO-Echo 01 Nov 12:31:11 12:33:17 13° 50° (NE) 12:35:25 ?
ZACube-1 01 Nov 12:34:05 12:38:04 41° 291° (WNW) 12:41:58 437.345 MHz
Uribyol 2 01 Nov 12:39:11 12:41:27 13° 50° (NE) 12:43:44 436.500 FM
Saudisat 1A 01 Nov 12:40:33 12:44:02 22° 27° (NNE) 12:47:30 436.775 MHz
ITAMSAT 1 01 Nov 12:46:59 12:49:37 14° 51° (NE) 12:52:15 435.822 SSB
Oscar 19 01 Nov 12:53:34 12:57:58 30° 62° (ENE) 13:02:22 437.125 CW, 437.150 USB
Oscar 11 01 Nov 12:58:27 13:00:50 15° 303° (WNW) 13:03:12 145.825 FM, Beacon 2401.500 USB
Sapphire 01 Nov 13:03:59 13:08:02 22° 252° (WSW) 13:12:05 437.095 MHz 1200 baud AX-25 AFSK
FUNcube-1 01 Nov 13:17:30 13:20:23 18° 300° (WNW) 13:23:15 145.950 - 145.970 MHz USB
SO-50 01 Nov 13:20:15 13:24:34 40° 322° (NW) 13:29:02 436.795 FM
PCSat 01 Nov 13:26:38 13:29:16 14° 257° (WSW) 13:31:53 145.825 MHz
AO-27 01 Nov 13:32:32 13:37:00 30° 61° (ENE) 13:41:29 436.795 MHz FM
ISS 01 Nov 13:39:11 13:42:30 65° 359° (N) 13:45:50 145.800 FM
Oscar 16 01 Nov 13:39:55 13:45:01 69° 71° (ENE) 13:50:09 437.025 USB, Beacon 2401.1428
HO-68 01 Nov 13:42:10 13:45:22 14° 322° (NW) 13:48:34 435.675 MHz FM
KITSAT 1 01 Nov 13:50:03 13:57:39 42° 327° (NNW) 14:05:16 435.175 FM
Gurwin Techsat 1B 01 Nov 13:54:22 13:58:41 26° 59° (ENE) 14:03:01 435.225 FM
JAS-1B 01 Nov 13:55:30 14:01:10 81° 72° (ENE) 14:07:04 435.800 - 435.900 CW/SSB
UOSAT-12 01 Nov 13:57:25 14:02:05 77° 128° (SE) 14:06:50 437.025 FM, 437.400 FM
TMSAT-1 01 Nov 14:00:21 14:04:24 23° 58° (ENE) 14:08:28 436.925 FM
AO-7 01 Nov 14:04:30 14:10:10 21° 39° (NE) 14:15:51 29.400 - 29.500 MHz
AO-Echo 01 Nov 14:06:02 14:11:02 62° 70° (ENE) 14:16:12 ?
Uribyol 2 01 Nov 14:14:48 14:19:58 63° 70° (ENE) 14:25:09 436.500 FM
Saudisat 1A 01 Nov 14:19:47 14:24:14 83° 49° (NE) 14:28:40 436.775 MHz
ITAMSAT 1 01 Nov 14:23:02 14:28:13 70° 71° (ENE) 14:33:27 435.822 SSB
Oscar 19 01 Nov 14:32:11 14:37:08 47° 261° (W) 14:42:06 437.125 CW, 437.150 USB
SO-50 01 Nov 15:03:22 15:06:22 17° 345° (NNW) 15:09:26 436.795 FM
JAS-2 01 Nov 15:07:13 15:09:09 11° 36° (NE) 15:11:07 435.800 - 435.900 CW/SSB, 435.910 FM
AO-27 01 Nov 15:11:15 15:16:18 49° 260° (W) 15:21:25 436.795 MHz FM
ISS 01 Nov 15:15:57 15:19:18 80° 199° (SSW) 15:22:39 145.800 FM
Oscar 16 01 Nov 15:21:12 15:24:53 20° 270° (W) 15:28:35 437.025 USB, Beacon 2401.1428
Gurwin Techsat 1B 01 Nov 15:33:05 15:38:19 59° 259° (W) 15:43:36 435.225 FM
TMSAT-1 01 Nov 15:38:34 15:43:51 69° 257° (WSW) 15:49:11 436.925 FM
UOSAT-12 01 Nov 15:38:42 15:42:44 27° 329° (NNW) 15:46:48 437.025 FM, 437.400 FM
AO-Echo 01 Nov 15:46:23 15:50:15 22° 270° (W) 15:54:13 ?
KITSAT 1 01 Nov 15:48:50 15:55:23 26° 355° (N) 16:01:57 435.175 FM
JAS-1B 01 Nov 15:49:21 15:52:50 16° 274° (W) 15:56:22 435.800 - 435.900 CW/SSB
AO-7 01 Nov 15:53:22 16:01:29 63° 63° (ENE) 16:09:39 29.400 - 29.500 MHz
Uribyol 2 01 Nov 15:55:54 15:59:53 22° 269° (W) 16:03:54 436.500 FM
Uosat F 01 Nov 15:59:03 16:03:37 36° 64° (ENE) 16:08:13 435.120 FM
Saudisat 1A 01 Nov 16:00:32 16:03:14 16° 248° (WSW) 16:05:55 436.775 MHz
ITAMSAT 1 01 Nov 16:04:29 16:08:14 20° 270° (W) 16:12:02 435.822 SSB
SO-50 01 Nov 16:45:56 16:48:46 15° 10° (N) 16:51:37 436.795 FM
JAS-2 01 Nov 16:46:03 16:52:04 38° 59° (ENE) 16:58:43 435.800 - 435.900 CW/SSB, 435.910 FM
ISS 01 Nov 16:53:01 16:55:39 22° 217° (SW) 16:58:17 145.800 FM
UOSAT-12 01 Nov 17:21:45 17:24:25 15° 353° (N) 17:27:04 437.025 FM, 437.400 FM
TMSAT-1 01 Nov 17:23:28 17:24:48 11° 277° (W) 17:26:07 436.925 FM
Uosat F 01 Nov 17:37:44 17:42:23 37° 263° (W) 17:47:05 435.120 FM
KITSAT 1 01 Nov 17:46:14 17:53:27 34° 24° (NNE) 18:00:38 435.175 FM
AO-7 01 Nov 17:47:15 17:54:44 37° 264° (W) 18:02:18 29.400 - 29.500 MHz
Hamsat 01 Nov 17:58:06 18:02:13 62° 73° (ENE) 18:06:22 145.90 MHz
OPAL 01 Nov 18:06:28 18:10:34 25° 96° (E) 18:14:38 ?
SO-50 01 Nov 18:26:26 18:30:45 32° 34° (NE) 18:35:07 436.795 FM
JAS-2 01 Nov 18:30:25 18:36:49 56° 262° (W) 18:44:03 435.800 - 435.900 CW/SSB, 435.910 FM
HO-68 01 Nov 18:54:23 18:58:32 17° 42° (NE) 19:02:41 435.675 MHz FM
UOSAT-12 01 Nov 19:03:07 19:06:22 18° 18° (NNE) 19:09:36 437.025 FM, 437.400 FM
Oscar 10/S400 01 Nov 19:06:31 19:30:53 44° 184° (S) 01:26:22 145.825 - 145.975 CW/USB, Beacon 145.810 USB
AO-40 01 Nov 19:27:20 22:43:00 27° 196° (SSW) 02:16:55 Beacon 2401.320
SO-67 01 Nov 19:27:47 19:31:13 78° 75° (ENE) 19:34:41 435.3500 MHz FM
Hamsat 01 Nov 19:36:04 19:38:36 16° 271° (W) 19:41:08 145.90 MHz
KITSAT 1 01 Nov 19:41:58 19:50:06 79° 50° (NE) 19:58:12 435.175 FM
OPAL 01 Nov 19:44:56 19:49:44 51° 294° (WNW) 19:54:30 ?
STRAND 1 01 Nov 20:04:27 20:09:28 49° 100° (E) 20:14:26 ?
SO-50 01 Nov 20:06:52 20:11:39 63° 234° (SW) 20:16:29 436.795 FM
RS-15 01 Nov 20:18:00 20:26:18 26° 102° (ESE) 20:34:34 29.354 - 29.394 USB, Beacon 29.352 USB
JAS-2 01 Nov 20:21:53 20:23:45 11° 285° (WNW) 20:25:41 435.800 - 435.900 CW/SSB, 435.910 FM
HO-68 01 Nov 20:37:51 20:44:49 57° 64° (ENE) 20:51:50 435.675 MHz FM
UOSAT-12 01 Nov 20:43:01 20:47:37 47° 41° (NE) 20:52:09 437.025 FM, 437.400 FM
Oscar 11 01 Nov 20:46:10 20:48:50 16° 58° (ENE) 20:51:30 145.825 FM, Beacon 2401.500 USB
FUNcube-1 01 Nov 21:07:20 21:09:22 13° 56° (NE) 21:11:22 145.950 - 145.970 MHz USB
OPAL 01 Nov 21:26:40 21:27:33 10° 315° (NW) 21:28:27 ?
KITSAT 1 01 Nov 21:38:03 21:44:48 30° 252° (WSW) 21:51:31 435.175 FM
STRAND 1 01 Nov 21:44:04 21:48:27 29° 299° (WNW) 21:52:48 ?
MaSat-1 01 Nov 21:44:31 21:46:29 14° 109° (ESE) 21:48:22 437.345 MHz
UKube-1 01 Nov 21:46:28 21:50:46 59° 71° (ENE) 21:55:05 145.840 MHz, 145.915 MHz
SO-50 01 Nov 21:50:25 21:51:19 10° 253° (WSW) 21:52:12 436.795 FM
ZACube-1 01 Nov 21:58:37 22:02:40 35° 67° (ENE) 22:06:40 437.345 MHz
Oscar 11 01 Nov 22:20:13 22:24:31 73° 257° (WSW) 22:28:51 145.825 FM, Beacon 2401.500 USB
UOSAT-12 01 Nov 22:23:25 22:27:40 34° 241° (WSW) 22:31:51 437.025 FM, 437.400 FM
RS-15 01 Nov 22:26:03 22:37:00 84° 127° (SE) 22:48:02 29.354 - 29.394 USB, Beacon 29.352 USB
HO-68 01 Nov 22:26:20 22:32:50 37° 264° (W) 22:39:24 435.675 MHz FM
FUNcube-1 01 Nov 22:40:35 22:45:05 83° 75° (ENE) 22:49:30 145.950 - 145.970 MHz USB
MaSat-1 01 Nov 23:17:55 23:21:33 59° 304° (WNW) 23:24:49 437.345 MHz
UKube-1 01 Nov 23:24:23 23:27:20 18° 269° (W) 23:30:19 145.840 MHz, 145.915 MHz
ZACube-1 01 Nov 23:35:06 23:39:06 31° 265° (W) 23:43:02 437.345 MHz
FUNcube-1 02 Nov 00:19:58 00:22:02 13° 273° (W) 00:24:05 145.950 - 145.970 MHz USB
RS-15 02 Nov 00:40:07 00:50:31 47° 336° (NNW) 01:01:07 29.354 - 29.394 USB, Beacon 29.352 USB
JAS-1B 02 Nov 01:33:12 01:38:20 20° 89° (E) 01:44:01 435.800 - 435.900 CW/SSB
Oscar 16 02 Nov 01:47:59 01:51:16 17° 88° (E) 01:54:32 437.025 USB, Beacon 2401.1428
Sapphire 02 Nov 01:07:02 01:11:23 25° 110° (ESE) 01:15:46 437.095 MHz 1200 baud AX-25 AFSK
AO-Echo 02 Nov 01:09:50 01:12:57 16° 86° (E) 01:16:03 ?
Uribyol 2 02 Nov 01:24:09 01:27:14 16° 87° (E) 01:30:17 436.500 FM
PCSat 02 Nov 01:27:42 01:32:40 38° 115° (ESE) 01:37:40 145.825 MHz
ITAMSAT 1 02 Nov 01:32:18 01:35:44 17° 88° (E) 01:39:08 435.822 SSB
Oscar 19 02 Nov 01:38:48 01:43:42 43° 98° (E) 01:48:33 437.125 CW, 437.150 USB
RS-15 02 Nov 01:55:56 02:06:02 39° 9° (N) 02:16:23 29.354 - 29.394 USB, Beacon 29.352 USB
AO-27 02 Nov 02:19:25 02:24:24 42° 98° (E) 02:29:19 436.795 MHz FM
JAS-1B 02 Nov 02:22:40 02:29:41 85° 106° (ESE) 02:38:07 435.800 - 435.900 CW/SSB
Oscar 16 02 Nov 02:26:06 02:31:15 79° 287° (WNW) 02:36:22 437.025 USB, Beacon 2401.1428
Gurwin Techsat 1B 02 Nov 02:44:32 02:49:33 40° 97° (E) 02:54:31 435.225 FM
AO-Echo 02 Nov 02:47:05 02:52:27 89° 286° (WNW) 02:57:45 ?
Sapphire 02 Nov 02:49:01 02:54:24 66° 310° (NW) 02:59:50 437.095 MHz 1200 baud AX-25 AFSK
OPAL 02 Nov 02:49:40 02:52:32 15° 50° (NE) 02:55:23 ?
TMSAT-1 02 Nov 02:49:51 02:54:41 34° 95° (E) 02:59:28 436.925 FM
AO-7 02 Nov 02:51:57 02:55:42 13° 82° (E) 02:59:27 29.400 - 29.500 MHz
Uribyol 2 02 Nov 03:02:10 03:07:25 86° 287° (WNW) 03:12:36 436.500 FM
ITAMSAT 1 02 Nov 03:10:36 03:15:51 78° 288° (WNW) 03:21:03 435.822 SSB
PCSat 02 Nov 03:10:49 03:16:02 46° 315° (NW) 03:21:17 145.825 MHz
Oscar 19 02 Nov 03:18:25 03:22:56 32° 297° (WNW) 03:27:25 437.125 CW, 437.150 USB
